[Iaude] MPEC F130: 2019 FB1 [a=1.76,e=0.45,i=3.9,H=27.9]

mpec at mpcdb1.cfa.harvard.edu mpec at mpcdb1.cfa.harvard.edu
Fri Mar 29 12:11:20 EDT 2019


M.P.E.C. 2019-F130                               Issued 2019 Mar. 29, 16:08 UT
 
     The Minor Planet Electronic Circulars contain information on unusual
         minor planets and routine data on comets.  They are published
    on behalf of Division F of the International Astronomical Union by the
          Minor Planet Center, Smithsonian Astrophysical Observatory,
                          Cambridge, MA 02138, U.S.A.

             Prepared using the Tamkin Foundation Computer Network

                              MPC at CFA.HARVARD.EDU
            URL https://www.minorplanetcenter.net/    ISSN 1523-6714


                                   2019 FB1
 
Observations:
     K19F01B* C2019 03 28.42768 11 19 08.01 +36 45 52.6          19.8 GVEF130G96
     K19F01B  C2019 03 28.43339 11 19 14.98 +36 46 35.3          20.0 GVEF130G96
     K19F01B  C2019 03 28.43911 11 19 22.09 +36 47 17.9          19.6 GVEF130G96
     K19F01B  C2019 03 28.44483 11 19 29.15 +36 48 00.2          19.9 GVEF130G96
     K19F01B  C2019 03 28.46744 11 19 58.03 +36 50 47.8          20.1 GVEF130G96
     K19F01B  C2019 03 28.46761 11 19 58.31 +36 50 48.8          20.7 GVEF130G96
     K19F01B  C2019 03 28.46779 11 19 58.54 +36 50 50.4          20.4 GVEF130G96
     K19F01B  C2019 03 28.46796 11 19 58.76 +36 50 50.7          20.2 GVEF130G96
     K19F01B  C2019 03 28.48160 11 20 16.88 +36 52 32.9          19.7 GVEF130I52
     K19F01B  C2019 03 28.48233 11 20 17.81 +36 52 37.8          20.1 GVEF130I52
     K19F01B  C2019 03 28.48378 11 20 19.76 +36 52 49.5          20.0 GVEF130I52
     K19F01B KC2019 03 28.85449111 31 32.92 +37 56 26.0          19.9 GVEF130J95
     K19F01B KC2019 03 28.85958111 31 41.65 +37 57 30.1          19.7 GVEF130J95
     K19F01B KC2019 03 28.86503111 31 51.05 +37 58 37.6          19.8 GVEF130J95
     K19F01B KC2019 03 28.87470611 32 09.91 +38 02 00.7          19.5 VqEF130I93
     K19F01B KC2019 03 28.88144311 32 21.37 +38 03 24.9          19.7 VqEF130I93
     K19F01B KC2019 03 28.88836811 32 33.17 +38 04 52.0          19.6 VqEF130I93
     K19F01B KC2019 03 28.90506711 32 51.34 +38 08 32.0          20.0 GVEF130L01
     K19F01B KC2019 03 28.90575911 32 52.54 +38 08 40.2          20.1 GVEF130L01
     K19F01B KC2019 03 28.90635611 32 53.54 +38 08 47.2          20.1 GVEF130L01
     K19F01B KC2019 03 28.90764411 32 55.72 +38 09 02.8          20.0 GVEF130L01
     K19F01B KC2019 03 28.90814111 32 56.59 +38 09 08.9          20.0 GVEF130L01
     K19F01B KC2019 03 28.92736 11 33 33.15 +38 12 55.1          20.0 GVEF130203
     K19F01B KC2019 03 28.94117 11 33 57.12 +38 15 40.9          19.8 GVEF130203
     K19F01B KC2019 03 28.95823 11 34 27.24 +38 19 05.1          19.6 GVEF130203
     K19F01B  C2019 03 29.14816 11 42 15.70 +39 00 22.3          20.0 GVEF130I52
     K19F01B  C2019 03 29.14856 11 42 16.57 +39 00 28.3          19.1 GVEF130I52
     K19F01B  C2019 03 29.14894 11 42 17.39 +39 00 34.7          19.5 GVEF130I52
     K19F01B  C2019 03 29.14933 11 42 18.27 +39 00 40.3          19.7 GVEF130I52
     K19F01B KC2019 03 29.22755 11 45 05.32 +39 21 10.5                oEF130711
     K19F01B KC2019 03 29.22923 11 45 09.05 +39 21 35.3                oEF130711
     K19F01B KC2019 03 29.23091 11 45 12.85 +39 22 00.2                oEF130711
     K19F01B KC2019 03 29.23293 11 45 17.35 +39 22 29.6                oEF130711
 
Observer details:
203 GiaGa Observatory.  Observers S. Foglia, G. Galli.  Measurer G. Galli.
    0.36-m f/5.76 Schmidt-Cassegrain + CCD.
711 McDonald Observatory, Fort Davis.  Observer J. G. Ries.  2.1-m reflector
    + CCD + focal reducer.
G96 Mt. Lemmon Survey.  Observer B. M. Africano.  Measurers B. M. Africano,
    E. J. Christensen, G. A. Farneth, D. C. Fuls, A. R. Gibbs, A. D. Grauer,
    H. Groeller, R. A. Kowalski, S. M. Larson, G. J. Leonard, T. A. Pruyne,
    R. L. Seaman, F. C. Shelly.  1.5-m reflector + 10K CCD.
I52 Steward Observatory, Mt. Lemmon Station.  Observer H. Groeller.
    Measurers B. M. Africano, E. J. Christensen, G. A. Farneth, D. C. Fuls,
    A. R. Gibbs, A. D. Grauer, H. Groeller, R. A. Kowalski, S. M. Larson,
    G. J. Leonard, T. A. Pruyne, R. L. Seaman, F. C. Shelly.  1.0-m reflector
    + CCD.
I93 St Pardon de Conques.  Observer F. Losse.  0.40-m f/3.7 reflector + CCD.
J95 Great Shefford.  Observer P. Birtwhistle.  0.41-m f/6.3
    Schmidt-Cassegrain + CCD.
L01 Visnjan Observatory, Tican.  Observers K. Korlevic, J. Mates.  Measurer
    K. Korlevic.  1.0-m f/2.9 reflector + CCD.
 
Orbital elements:
2019 FB1                                                 Earth MOID = 0.0027 AU
Epoch 2019 Apr. 27.0 TT = JDT 2458600.5                 MPC
M   2.10963              (2000.0)            P               Q
n   0.42079598     Peri.  203.63226     -0.80281425     +0.59603759
a   1.7636876      Node    12.98765     -0.53574574     -0.71001663
e   0.4516814      Incl.    3.85640     -0.26165966     -0.37498743
P   2.34           H   27.9           G   0.15           U   4
Residuals in seconds of arc
190328 G96  0.0   0.4+    190328 J95  0.3+  0.5-    190328 203  0.4+  0.4+
190328 G96  0.1+  0.5+    190328 J95  0.2+  0.1+    190328 203  0.3-  0.1-
190328 G96  0.8+  0.5+    190328 J95  0.5+  0.5-    190328 203  0.3+  0.1+
190328 G96  0.0   0.3+    190328 I93  0.1+  0.4+    190329 I52  0.1-  0.2-
190328 G96  0.9-  0.2+    190328 I93  0.3+  0.2-    190329 I52  0.1-  0.4-
190328 G96  0.2-  0.0     190328 I93  0.5+  0.1-    190329 I52  0.3-  0.2+
190328 G96  0.3-  0.2+    190328 L01  0.3-  0.1+    190329 I52  0.0   0.2-
190328 G96  0.3-  0.7-    190328 L01  0.0   0.0     190329 711  0.2-  0.6+
190328 I52  0.2-  0.4+    190328 L01  0.2-  0.2-    190329 711  0.6-  0.6+
190328 I52  0.8-  0.1-    190328 L01  0.3-  0.1-    190329 711  0.2-  0.8+
190328 I52  0.9-  0.8+    190328 L01  0.0   0.0     190329 711  0.6-  0.5+

Ephemeris:
2019 FB1                 a,e,i = 1.76, 0.45, 4                   q = 0.9671
Date    TT    R. A. (2000) Decl.     Delta      r     Elong.  Phase     V
2019 02 27    10 29 56.3 +26 07 37   0.1616  1.1453   162.4    15.2    25.1
...
2019 03 14    10 29 05.6 +28 45 29   0.08302 1.0666   149.9    27.9    23.9
...
2019 03 22    10 35 48.1 +30 44 32   0.04450 1.0319   142.7    35.8    22.7
...
2019 03 28    11 11 16.4 +35 49 00   0.01636 1.0101   137.8    41.5    20.6
2019 03 29    11 35 57.2 +38 29 00   0.01183 1.0068   136.7    42.8    19.9
2019 03 30    12 35 52.4 +42 59 00   0.0075411.0037   133.5    46.1    19.0
...
2019 04 05    21 44 57.0 -22 10 40   0.02226 0.9873    54.0   124.9    24.8
...
2019 04 13    22 08 52.8 -26 04 36   0.05967 0.9728    58.7   118.3    26.4
...
2019 04 28    22 24 27.6 -26 16 38   0.1289  0.9696    69.8   103.1    27.2

A. U. Tomatic                (C) Copyright 2019 MPC           M.P.E.C. 2019-F130



More information about the Iaude mailing list